Tracking 19149 objects as of 21-Apr-2018
HD Live streaming from Space Station
objects crossing your sky now

FENGYUN 1C DEB

Track FENGYUN 1C DEB now!
10-day predictions


NORAD ID: 30177
Int'l Code: 1999-025UJ
Perigee: 706.5 km
Apogee: 1,412.5 km
Inclination: 98.6 °
Period: 106.2 minutes
Semi major axis: 7430 km
RCS: 0.0564 m2 (small)
Launch date: May 10, 1999
Source: People's Republic of China (PRC)
Launch site: Taiyaun Space Center, China (TSC)

Note: This is SATELLITE DEBRIS
aabbcc
Your satellite tracking list
Your tracking list is empty




NASA's NSSDC Master Catalog

Two Line Element Set (TLE):
1 30177U 99025UJ  18110.17698760  .00000130  00000-0  11770-3 0  9991
2 30177  98.6228 353.5162 0475087 237.1502 251.8229 13.55428125555742
Source of the keplerian elements: AFSPC